Location: Pella
(41.4080°N, 92.9160°W)
Time: 04:15:48
(UTC-05:00)

ISS - Visible Passes

Search period start: 15 October 2019 00:00
Search period end: 25 October 2019 00:00
Orbit: 411 x 421 km, 51.6° (Epoch: 15 October)

Date Brightness Start Highest point End Pass type
(mag) Time Alt. Az. Time Alt. Az. Time Alt. Az.
21 Oct -0.1 06:49:26 10° SE 06:49:49 10° SE 06:50:13 10° ESE visible
23 Oct -1.6 06:46:08 10° SSW 06:49:04 28° SE 06:52:00 10° ENE visible
24 Oct -0.9 05:58:29 10° S 06:00:41 16° SE 06:02:53 10° E visible
